Time,TemperatureF,DewpointF,PressureIn,WindDirection,WindDirectionDegrees,WindSpeedMPH,WindSpeedGustMPH,Humidity,HourlyPrecipIn,Conditions,Clouds,dailyrainin,SoftwareType,DateUTC
2013-06-08 00:01:00,60.0,53.0,29.93,East,91,6.0,0.0,79,0.03,,,-99.99,,2013-06-08 04:01:00,
2013-06-08 00:03:00,60.0,54.0,29.93,SE,124,5.0,0.0,81,0.03,,,-99.99,,2013-06-08 04:03:00,
2013-06-08 00:13:00,60.0,54.0,29.93,SE,124,5.0,0.0,81,0.03,,,-99.99,,2013-06-08 04:13:00,
2013-06-08 00:23:00,59.0,54.0,29.93,ESE,122,1.0,0.0,83,0.03,,,-99.99,,2013-06-08 04:23:00,
2013-06-08 00:33:00,59.0,54.0,29.93,East,100,4.0,0.0,84,0.03,,,-99.99,,2013-06-08 04:33:00,
2013-06-08 00:42:00,59.0,54.0,29.93,East,100,4.0,0.0,84,0.03,,,-99.99,,2013-06-08 04:42:00,
2013-06-08 00:53:00,59.0,54.0,29.93,East,100,4.0,0.0,84,0.03,,,-99.99,,2013-06-08 04:53:00,
2013-06-08 01:02:00,58.0,54.0,29.93,East,100,0.0,0.0,87,0.03,,,-99.99,,2013-06-08 05:02:00,
2013-06-08 01:12:00,58.0,54.0,29.93,East,100,0.0,0.0,87,0.03,,,-99.99,,2013-06-08 05:12:00,
2013-06-08 01:22:00,58.0,54.0,29.93,ENE,77,1.0,0.0,88,0.03,,,-99.99,,2013-06-08 05:22:00,
2013-06-08 01:32:00,58.0,55.0,29.93,ENE,77,0.0,0.0,89,0.03,,,-99.99,,2013-06-08 05:32:00,
2013-06-08 01:42:00,58.0,55.0,29.93,ENE,77,0.0,0.0,89,0.03,,,-99.99,,2013-06-08 05:42:00,
2013-06-08 01:53:00,58.0,55.0,29.93,ENE,77,0.0,0.0,90,0.03,,,-99.99,,2013-06-08 05:53:00,
2013-06-08 02:02:00,57.0,54.0,29.93,ENE,77,0.0,0.0,90,0.03,,,-99.99,,2013-06-08 06:02:00,
2013-06-08 02:13:00,57.0,54.0,29.93,ENE,77,0.0,0.0,90,0.03,,,-99.99,,2013-06-08 06:13:00,
2013-06-08 02:22:00,57.0,55.0,29.92,NE,41,0.0,0.0,92,0.03,,,-99.99,,2013-06-08 06:22:00,
2013-06-08 02:32:00,57.0,55.0,29.92,NE,41,0.0,0.0,92,0.03,,,-99.99,,2013-06-08 06:32:00,
2013-06-08 02:42:00,57.0,55.0,29.92,NE,41,0.0,0.0,92,0.03,,,-99.99,,2013-06-08 06:42:00,
2013-06-08 02:53:00,57.0,55.0,29.92,ENE,60,5.0,0.0,92,0.03,,,-99.99,,2013-06-08 06:53:00,
2013-06-08 03:02:00,57.0,55.0,29.92,ENE,70,1.0,0.0,92,0.03,,,-99.99,,2013-06-08 07:02:00,
2013-06-08 03:12:00,57.0,55.0,29.92,ENE,70,1.0,0.0,92,0.03,,,-99.99,,2013-06-08 07:12:00,
2013-06-08 03:22:00,57.0,55.0,29.92,ENE,70,0.0,0.0,92,0.03,,,-99.99,,2013-06-08 07:22:00,
2013-06-08 03:32:00,56.0,54.0,29.93,ENE,70,0.0,0.0,93,0.03,,,-99.99,,2013-06-08 07:32:00,
2013-06-08 03:42:00,56.0,54.0,29.93,ENE,70,0.0,0.0,93,0.03,,,-99.99,,2013-06-08 07:42:00,
2013-06-08 03:52:00,55.0,53.0,29.93,ENE,70,0.0,0.0,94,0.03,,,-99.99,,2013-06-08 07:52:00,
2013-06-08 04:02:00,55.0,54.0,29.93,ENE,70,0.0,0.0,95,0.03,,,-99.99,,2013-06-08 08:02:00,
2013-06-08 04:12:00,55.0,54.0,29.93,ENE,70,0.0,0.0,95,0.03,,,-99.99,,2013-06-08 08:12:00,
2013-06-08 04:22:00,54.0,53.0,29.93,ENE,70,0.0,0.0,96,0.03,,,-99.99,,2013-06-08 08:22:00,
2013-06-08 04:32:00,53.0,52.0,29.92,ENE,70,0.0,0.0,97,0.03,,,-99.99,,2013-06-08 08:32:00,
2013-06-08 04:42:00,53.0,52.0,29.92,ENE,70,0.0,0.0,97,0.03,,,-99.99,,2013-06-08 08:42:00,
2013-06-08 04:53:00,53.0,52.0,29.93,ENE,70,0.0,0.0,98,0.03,,,-99.99,,2013-06-08 08:53:00,
2013-06-08 05:02:00,52.0,52.0,29.93,ENE,70,0.0,0.0,99,0.03,,,-99.99,,2013-06-08 09:02:00,
2013-06-08 05:12:00,52.0,52.0,29.93,ENE,70,0.0,0.0,99,0.03,,,-99.99,,2013-06-08 09:12:00,
2013-06-08 05:22:00,52.0,52.0,29.93,ENE,70,0.0,0.0,100,0.03,,,-99.99,,2013-06-08 09:22:00,
2013-06-08 05:33:00,52.0,52.0,29.93,ENE,70,0.0,0.0,100,0.03,,,-99.99,,2013-06-08 09:33:00,
2013-06-08 05:43:00,52.0,52.0,29.93,ENE,70,0.0,0.0,100,0.03,,,-99.99,,2013-06-08 09:43:00,
2013-06-08 05:53:00,51.0,51.0,29.94,ENE,70,0.0,0.0,100,0.03,,,-99.99,,2013-06-08 09:53:00,
2013-06-08 06:03:00,51.0,51.0,29.94,ENE,70,0.0,0.0,100,0.03,,,-99.99,,2013-06-08 10:03:00,
2013-06-08 06:12:00,51.0,51.0,29.94,ENE,70,0.0,0.0,100,0.03,,,-99.99,,2013-06-08 10:12:00,
2013-06-08 06:22:00,51.0,51.0,29.94,ENE,70,0.0,0.0,100,0.03,,,-99.99,,2013-06-08 10:22:00,
2013-06-08 06:33:00,50.0,50.0,29.95,ENE,70,0.0,0.0,100,0.03,,,-99.99,,2013-06-08 10:33:00,
2013-06-08 06:43:00,50.0,50.0,29.95,ENE,70,0.0,0.0,100,0.03,,,-99.99,,2013-06-08 10:43:00,
2013-06-08 06:53:00,51.0,51.0,29.96,ENE,70,0.0,0.0,100,0.03,,,-99.99,,2013-06-08 10:53:00,
2013-06-08 07:02:00,51.0,51.0,29.96,ENE,70,0.0,0.0,100,0.03,,,-99.99,,2013-06-08 11:02:00,
2013-06-08 07:12:00,51.0,51.0,29.96,ENE,70,0.0,0.0,100,0.03,,,-99.99,,2013-06-08 11:12:00,
2013-06-08 07:22:00,52.0,52.0,29.96,ENE,70,0.0,0.0,100,0.03,,,-99.99,,2013-06-08 11:22:00,
2013-06-08 07:32:00,52.0,52.0,29.96,ENE,77,0.0,0.0,100,0.03,,,-99.99,,2013-06-08 11:32:00,
2013-06-08 07:42:00,52.0,52.0,29.96,ENE,77,0.0,0.0,100,0.03,,,-99.99,,2013-06-08 11:42:00,
2013-06-08 07:52:00,53.0,53.0,29.97,ESE,108,0.0,0.0,100,0.03,,,-99.99,,2013-06-08 11:52:00,
2013-06-08 08:02:00,54.0,54.0,29.98,East,86,2.0,0.0,100,0.03,,,-99.99,,2013-06-08 12:02:00,
2013-06-08 08:12:00,54.0,54.0,29.98,East,86,2.0,0.0,100,0.03,,,-99.99,,2013-06-08 12:12:00,
2013-06-08 08:22:00,55.0,55.0,29.98,South,170,4.0,0.0,100,0.03,,,-99.99,,2013-06-08 12:22:00,
2013-06-08 08:33:00,56.0,56.0,29.98,SE,142,4.0,0.0,100,0.03,,,-99.99,,2013-06-08 12:33:00,
2013-06-08 08:42:00,56.0,56.0,29.98,SE,142,4.0,0.0,100,0.03,,,-99.99,,2013-06-08 12:42:00,
2013-06-08 08:52:00,57.0,56.0,29.99,SE,135,5.0,0.0,98,0.03,,,-99.99,,2013-06-08 12:52:00,
2013-06-08 09:02:00,57.0,56.0,29.99,SE,135,5.0,0.0,98,0.03,,,-99.99,,2013-06-08 13:02:00,
2013-06-08 09:12:00,57.0,56.0,29.99,SE,135,5.0,0.0,98,0.03,,,-99.99,,2013-06-08 13:12:00,
2013-06-08 09:22:00,58.0,57.0,29.99,South,176,7.0,0.0,95,0.03,,,-99.99,,2013-06-08 13:22:00,
2013-06-08 09:32:00,59.0,57.0,29.99,South,176,7.0,0.0,92,0.03,,,-99.99,,2013-06-08 13:32:00,
2013-06-08 09:42:00,59.0,57.0,29.99,South,176,7.0,0.0,92,0.03,,,-99.99,,2013-06-08 13:42:00,
2013-06-08 09:52:00,60.0,57.0,30.00,SSE,165,6.0,0.0,91,0.03,,,-99.99,,2013-06-08 13:52:00,
2013-06-08 10:02:00,60.0,57.0,29.99,SE,142,5.0,0.0,91,0.03,,,-99.99,,2013-06-08 14:02:00,
2013-06-08 10:12:00,60.0,57.0,29.99,SE,142,5.0,0.0,91,0.03,,,-99.99,,2013-06-08 14:12:00,
2013-06-08 10:22:00,61.0,57.0,29.99,South,180,8.0,0.0,88,0.03,,,-99.99,,2013-06-08 14:22:00,
2013-06-08 10:32:00,62.0,58.0,29.99,South,190,5.0,0.0,86,0.03,,,-99.99,,2013-06-08 14:32:00,
2013-06-08 10:42:00,62.0,58.0,29.99,South,190,5.0,0.0,86,0.03,,,-99.99,,2013-06-08 14:42:00,
2013-06-08 10:52:00,63.0,58.0,29.99,South,188,6.0,0.0,83,0.03,,,-99.99,,2013-06-08 14:52:00,
2013-06-08 11:02:00,63.0,57.0,29.99,South,173,7.0,0.0,80,0.03,,,-99.99,,2013-06-08 15:02:00,
2013-06-08 11:12:00,63.0,57.0,29.99,South,173,7.0,0.0,80,0.03,,,-99.99,,2013-06-08 15:12:00,
2013-06-08 11:22:00,64.0,57.0,29.99,South,172,6.0,0.0,79,0.03,,,-99.99,,2013-06-08 15:22:00,
2013-06-08 11:33:00,64.0,57.0,29.99,ESE,120,5.0,0.0,77,0.03,,,-99.99,,2013-06-08 15:33:00,
2013-06-08 11:43:00,64.0,57.0,29.99,ESE,120,5.0,0.0,77,0.03,,,-99.99,,2013-06-08 15:43:00,
2013-06-08 11:53:00,64.0,57.0,30.00,South,181,6.0,0.0,77,0.03,,,-99.99,,2013-06-08 15:53:00,
2013-06-08 12:03:00,64.0,56.0,30.01,South,183,5.0,0.0,75,0.03,,,-99.99,,2013-06-08 16:03:00,
2013-06-08 12:12:00,64.0,56.0,30.01,South,183,5.0,0.0,75,0.03,,,-99.99,,2013-06-08 16:12:00,
2013-06-08 12:23:00,65.0,56.0,30.01,South,179,7.0,0.0,74,0.03,,,-99.99,,2013-06-08 16:23:00,
2013-06-08 12:33:00,66.0,56.0,30.00,NE,56,5.0,0.0,70,0.03,,,-99.99,,2013-06-08 16:33:00,
2013-06-08 12:42:00,66.0,56.0,30.00,NE,56,5.0,0.0,70,0.03,,,-99.99,,2013-06-08 16:42:00,
2013-06-08 12:53:00,67.0,56.0,30.00,SSE,163,4.0,0.0,67,0.03,,,-99.99,,2013-06-08 16:53:00,
2013-06-08 13:02:00,67.0,56.0,30.00,SSE,163,4.0,0.0,67,0.03,,,-99.99,,2013-06-08 17:02:00,
2013-06-08 13:12:00,67.0,56.0,30.00,SSE,163,4.0,0.0,67,0.03,,,-99.99,,2013-06-08 17:12:00,
2013-06-08 13:23:00,68.0,54.0,30.00,SSW,195,4.0,0.0,62,0.03,,,-99.99,,2013-06-08 17:23:00,
2013-06-08 13:32:00,68.0,54.0,30.00,South,174,6.0,0.0,62,0.03,,,-99.99,,2013-06-08 17:32:00,
2013-06-08 13:42:00,68.0,54.0,30.00,South,174,6.0,0.0,62,0.03,,,-99.99,,2013-06-08 17:42:00,
2013-06-08 13:52:00,68.0,54.0,30.00,ENE,69,3.0,0.0,60,0.03,,,-99.99,,2013-06-08 17:52:00,
2013-06-08 14:02:00,68.0,54.0,30.00,NE,45,5.0,0.0,61,0.03,,,-99.99,,2013-06-08 18:02:00,
2013-06-08 14:12:00,68.0,54.0,30.00,NE,45,5.0,0.0,61,0.03,,,-99.99,,2013-06-08 18:12:00,
2013-06-08 14:22:00,69.0,54.0,30.00,ENE,63,6.0,0.0,58,0.03,,,-99.99,,2013-06-08 18:22:00,
2013-06-08 14:32:00,69.0,53.0,29.99,ESE,117,5.0,0.0,57,0.03,,,-99.99,,2013-06-08 18:32:00,
2013-06-08 14:42:00,69.0,53.0,29.99,ESE,117,5.0,0.0,57,0.03,,,-99.99,,2013-06-08 18:42:00,
2013-06-08 14:52:00,69.0,53.0,29.99,South,188,7.0,0.0,56,0.03,,,-99.99,,2013-06-08 18:52:00,
2013-06-08 15:03:00,70.0,53.0,29.99,SSW,211,4.0,0.0,55,0.03,,,-99.99,,2013-06-08 19:03:00,
2013-06-08 15:13:00,70.0,53.0,29.99,SSW,211,4.0,0.0,55,0.03,,,-99.99,,2013-06-08 19:13:00,
2013-06-08 15:22:00,70.0,53.0,29.99,ESE,122,4.0,0.0,54,0.03,,,-99.99,,2013-06-08 19:22:00,
2013-06-08 15:32:00,71.0,52.0,29.99,South,183,4.0,0.0,52,0.03,,,-99.99,,2013-06-08 19:32:00,
2013-06-08 15:42:00,71.0,52.0,29.99,South,183,4.0,0.0,52,0.03,,,-99.99,,2013-06-08 19:42:00,
2013-06-08 15:53:00,71.0,53.0,29.99,NW,308,0.0,0.0,53,0.03,,,-99.99,,2013-06-08 19:53:00,
2013-06-08 16:02:00,71.0,50.0,29.99,SSW,201,4.0,0.0,48,0.03,,,-99.99,,2013-06-08 20:02:00,
2013-06-08 16:12:00,71.0,50.0,29.99,SSW,201,4.0,0.0,48,0.03,,,-99.99,,2013-06-08 20:12:00,
2013-06-08 16:22:00,72.0,51.0,29.99,SE,145,2.0,0.0,48,0.03,,,-99.99,,2013-06-08 20:22:00,
2013-06-08 16:32:00,72.0,53.0,29.99,NNW,333,2.0,0.0,51,0.03,,,-99.99,,2013-06-08 20:32:00,
2013-06-08 16:42:00,72.0,53.0,29.99,NNW,333,2.0,0.0,51,0.03,,,-99.99,,2013-06-08 20:42:00,
2013-06-08 16:52:00,72.0,53.0,29.99,NNW,333,2.0,0.0,51,0.03,,,-99.99,,2013-06-08 20:52:00,
2013-06-08 17:02:00,72.0,52.0,29.99,SSW,197,5.0,0.0,50,0.03,,,-99.99,,2013-06-08 21:02:00,
2013-06-08 17:13:00,72.0,52.0,29.99,SSW,197,5.0,0.0,50,0.03,,,-99.99,,2013-06-08 21:13:00,
2013-06-08 17:22:00,71.0,50.0,29.99,West,270,4.0,0.0,48,0.03,,,-99.99,,2013-06-08 21:22:00,
2013-06-08 17:33:00,72.0,52.0,29.99,WSW,248,3.0,0.0,49,0.03,,,-99.99,,2013-06-08 21:33:00,
2013-06-08 17:43:00,72.0,52.0,29.99,WSW,248,3.0,0.0,49,0.03,,,-99.99,,2013-06-08 21:43:00,
2013-06-08 17:53:00,72.0,52.0,29.99,SE,132,0.0,0.0,49,0.03,,,-99.99,,2013-06-08 21:53:00,
2013-06-08 18:02:00,73.0,53.0,30.00,SE,139,1.0,0.0,49,0.03,,,-99.99,,2013-06-08 22:02:00,
2013-06-08 18:12:00,73.0,53.0,30.00,SE,139,1.0,0.0,49,0.03,,,-99.99,,2013-06-08 22:12:00,
2013-06-08 18:23:00,73.0,53.0,30.00,SE,139,1.0,0.0,49,0.03,,,-99.99,,2013-06-08 22:23:00,
2013-06-08 18:33:00,72.0,52.0,30.00,South,187,6.0,0.0,49,0.03,,,-99.99,,2013-06-08 22:33:00,
2013-06-08 18:43:00,71.0,55.0,30.01,South,187,10.0,0.0,57,0.03,,,-99.99,,2013-06-08 22:43:00,
2013-06-08 18:53:00,71.0,55.0,30.01,South,187,10.0,0.0,57,0.03,,,-99.99,,2013-06-08 22:53:00,
2013-06-08 19:02:00,71.0,55.0,30.01,South,187,10.0,0.0,57,0.03,,,-99.99,,2013-06-08 23:02:00,
2013-06-08 19:12:00,71.0,55.0,30.01,South,187,10.0,0.0,57,0.03,,,-99.99,,2013-06-08 23:12:00,
2013-06-08 19:22:00,71.0,54.0,30.01,SSE,150,1.0,0.0,54,0.03,,,-99.99,,2013-06-08 23:22:00,
2013-06-08 19:32:00,71.0,52.0,30.01,West,273,0.0,0.0,52,0.03,,,-99.99,,2013-06-08 23:32:00,
2013-06-08 19:42:00,71.0,52.0,30.01,West,273,0.0,0.0,52,0.03,,,-99.99,,2013-06-08 23:42:00,
2013-06-08 19:52:00,71.0,52.0,30.01,West,273,0.0,0.0,52,0.03,,,-99.99,,2013-06-08 23:52:00,
2013-06-08 20:02:00,71.0,52.0,30.01,West,273,0.0,0.0,52,0.03,,,-99.99,,2013-06-09 00:02:00,
2013-06-08 20:22:00,70.0,52.0,30.01,West,273,0.0,0.0,53,0.03,,,-99.99,,2013-06-09 00:22:00,
2013-06-08 20:32:00,69.0,52.0,30.02,West,273,0.0,0.0,54,0.03,,,-99.99,,2013-06-09 00:32:00,
2013-06-08 20:42:00,69.0,52.0,30.02,West,273,0.0,0.0,54,0.03,,,-99.99,,2013-06-09 00:42:00,
2013-06-08 20:52:00,69.0,52.0,30.02,West,273,0.0,0.0,55,0.03,,,-99.99,,2013-06-09 00:52:00,
2013-06-08 21:02:00,68.0,52.0,30.02,West,273,0.0,0.0,57,0.03,,,-99.99,,2013-06-09 01:02:00,
2013-06-08 21:12:00,68.0,52.0,30.02,West,273,0.0,0.0,57,0.03,,,-99.99,,2013-06-09 01:12:00,
2013-06-08 21:22:00,68.0,52.0,30.02,West,273,0.0,0.0,57,0.03,,,-99.99,,2013-06-09 01:22:00,
2013-06-08 21:32:00,68.0,53.0,30.02,West,273,0.0,0.0,59,0.03,,,-99.99,,2013-06-09 01:32:00,
2013-06-08 21:42:00,68.0,53.0,30.02,West,273,0.0,0.0,59,0.03,,,-99.99,,2013-06-09 01:42:00,
2013-06-08 21:52:00,66.0,56.0,30.02,West,273,0.0,0.0,71,0.03,,,-99.99,,2013-06-09 01:52:00,
2013-06-08 22:02:00,65.0,58.0,30.02,West,273,0.0,0.0,77,0.03,,,-99.99,,2013-06-09 02:02:00,
2013-06-08 22:12:00,65.0,58.0,30.02,West,273,0.0,0.0,77,0.03,,,-99.99,,2013-06-09 02:12:00,
2013-06-08 22:22:00,64.0,57.0,30.03,West,273,0.0,0.0,79,0.03,,,-99.99,,2013-06-09 02:22:00,
2013-06-08 22:32:00,63.0,57.0,30.03,West,273,0.0,0.0,80,0.03,,,-99.99,,2013-06-09 02:32:00,
2013-06-08 22:42:00,63.0,57.0,30.03,West,273,0.0,0.0,80,0.03,,,-99.99,,2013-06-09 02:42:00,
2013-06-08 22:52:00,62.0,57.0,30.03,West,273,0.0,0.0,85,0.03,,,-99.99,,2013-06-09 02:52:00,
2013-06-08 23:02:00,60.0,58.0,30.04,West,273,0.0,0.0,92,0.03,,,-99.99,,2013-06-09 03:02:00,
2013-06-08 23:12:00,60.0,58.0,30.04,West,273,0.0,0.0,92,0.03,,,-99.99,,2013-06-09 03:12:00,
2013-06-08 23:22:00,60.0,58.0,30.05,West,273,0.0,0.0,93,0.03,,,-99.99,,2013-06-09 03:22:00,
2013-06-08 23:33:00,59.0,57.0,30.05,West,273,0.0,0.0,93,0.03,,,-99.99,,2013-06-09 03:33:00,
2013-06-08 23:43:00,59.0,57.0,30.05,West,273,0.0,0.0,93,0.03,,,-99.99,,2013-06-09 03:43:00,
2013-06-08 23:53:00,59.0,57.0,30.05,West,273,0.0,0.0,93,0.03,,,-99.99,,2013-06-09 03:53:00,